Regional Weather Roundup
Issued by NWS

Home | Current Version | Previous Version | Text Only | Print | Product List | Glossary Off
Versions: 1 2 3 4 5 6 7 8 9 10 11 12 13 14 15 16 17 18 19 20 21 22 23 24 25 26 27 28 29 30 31 32 33 34 35 36 37 38 39 40 41 42 43 44 45 46 47 48 49 50

000
ASUS43 KBIS 231610
RWRND

NORTH DAKOTA REGIONAL WEATHER ROUNDUP
NATIONAL WEATHER SERVICE BISMARCK ND
1100 AM CDT MON APR 23 2018

NOTE: "FAIR" INDICATES FEW OR NO CLOUDS BELOW 12,000 FEET WITH NO
SIGNIFICANT WEATHER AND/OR OBSTRUCTIONS TO VISIBILITY.


NDZ001>003-009>011-017-231700-
NORTHWEST NORTH DAKOTA

CITY           SKY/WX    TMP DP  RH WIND       PRES   REMARKS
WILLISTON      CLOUDY    46  34  62 N15       30.31R
MINOT          CLOUDY    51  34  52 NW10      30.25S
MINOT AFB      CLOUDY    50  35  56 N10       30.24S
$$

NDZ018>021-031>035-040>046-231700-
SOUTHWEST NORTH DAKOTA

CITY           SKY/WX    TMP DP  RH WIND       PRES   REMARKS
BISMARCK       SUNNY     60  31  33 E17G24    30.20F
DICKINSON      CLOUDY    51  31  46 NE18      30.21R
GARRISON         N/A     48  33  56 NE10G17   30.24R
HETTINGER ARPT PTSUNNY   56  36  47 NE23      30.17R
$$

NDZ004>008-012>016-024-026-027-054-231700-
NORTHEAST NORTH DAKOTA

CITY           SKY/WX    TMP DP  RH WIND       PRES   REMARKS
GRAND FORKS    FAIR      56  39  53 N12       30.19S
GRND FRKS AFB  FAIR      57  35  43 N14       30.20R
DEVILS LAKE    FAIR      51  35  54 N16       30.22S
$$

NDZ022-023-025-028>030-036>039-047>053-231700-
SOUTHEAST NORTH DAKOTA

CITY           SKY/WX    TMP DP  RH WIND       PRES   REMARKS
FARGO          FAIR      56  41  57 W6        30.18F
JAMESTOWN      SUNNY     58  36  43 E12       30.19S
$$





USA.gov is the U.S. government's official web portal to all federal, state and local government web resources and services.